| time (UTC) | temp C | wind direction | speed KPH | gust KPH | rain 1hr cm | rain 24hr cm | rain mn cm | humidity % | barometer mb |
| 20260502123109 | 11 | 221 | 0.0 | 0.0 | 0.00 | 0.00 | 0.00 | 91 | 1010.4 |
| 20260502121609 | 11 | 221 | 0.0 | 0.0 | 0.00 | 0.00 | 0.00 | 91 | 1010.4 |
| 20260502120111 | 11 | 219 | 0.0 | 0.0 | 0.00 | 0.00 | 0.00 | 90 | 1010.5 |
| 20260502114612 | 11 | 219 | 0.0 | 0.0 | 0.00 | 0.00 | 0.00 | 89 | 1010.5 |
| 20260502113109 | 11 | 221 | 0.0 | 0.0 | 0.00 | 0.00 | 0.00 | 88 | 1010.7 |
| 20260502111609 | 11 | 270 | 0.0 | 0.0 | 0.00 | 0.00 | 0.00 | 87 | 1010.6 |
| 20260502110109 | 11 | 270 | 0.0 | 0.0 | 0.00 | 0.00 | 0.00 | 87 | 1010.7 |
| 20260502104608 | 12 | 269 | 0.0 | 0.0 | 0.00 | 0.00 | 0.00 | 85 | 1010.7 |
| 20260502103019 | 12 | 278 | 0.0 | 0.0 | 0.00 | 0.00 | 0.00 | 85 | 1010.6 |
| 20260502101539 | 12 | 229 | 0.0 | 0.0 | 0.00 | 0.00 | 0.00 | 86 | 1010.6 |
| 20260502091519 | 12 | 263 | 0.0 | 0.0 | 0.00 | 0.00 | 0.00 | 85 | 1010.8 |
| 20260502070058 | 14 | 237 | 0.0 | 6.4 | 0.00 | 0.00 | 0.00 | 82 | 1011.2 |
| 20260502064551 | 15 | 210 | 0.0 | 3.2 | 0.00 | 0.00 | 0.00 | 82 | 1011.1 |
| 20260502063055 | 15 | 174 | 0.0 | 4.8 | 0.00 | 0.00 | 0.00 | 82 | 1011.0 |
| 20260502061609 | 15 | 217 | 0.0 | 1.6 | 0.00 | 0.00 | 0.00 | 82 | 1011.0 |
| 20260502060104 | 15 | 219 | 0.0 | 0.0 | 0.00 | 0.00 | 0.00 | 81 | 1011.0 |
| 20260502054602 | 16 | 221 | 0.0 | 0.0 | 0.00 | 0.00 | 0.00 | 81 | 1011.1 |
| 20260502053102 | 16 | 212 | 0.0 | 0.0 | 0.00 | 0.00 | 0.00 | 82 | 1011.0 |
| 20260502051502 | 16 | 213 | 0.0 | 0.0 | 0.00 | 0.00 | 0.00 | 80 | 1010.9 |
| 20260502050007 | 17 | 281 | 0.0 | 1.6 | 0.00 | 0.00 | 0.00 | 79 | 1010.9 |
| 20260502044503 | 17 | 266 | 0.0 | 0.0 | 0.00 | 0.00 | 0.00 | 78 | 1010.7 |
| 20260502043002 | 18 | 280 | 0.0 | 1.6 | 0.00 | 0.00 | 0.00 | 76 | 1010.6 |
| 20260502041517 | 18 | 298 | 0.0 | 0.0 | 0.00 | 0.00 | 0.00 | 76 | 1010.5 |
| 20260502040017 | 18 | 269 | 0.0 | 1.6 | 0.00 | 0.00 | 0.00 | 74 | 1010.3 |
| 20260502034524 | 19 | 285 | 0.0 | 0.0 | 0.00 | 0.00 | 0.00 | 72 | 1010.0 |
| 20260502033017 | 20 | 266 | 0.0 | 1.6 | 0.00 | 0.00 | 0.00 | 68 | 1009.8 |
| 20260502031534 | 21 | 295 | 0.0 | 1.6 | 0.00 | 0.00 | 0.00 | 63 | 1009.6 |
| 20260502030033 | 21 | 283 | 0.0 | 3.2 | 0.00 | 0.00 | 0.00 | 58 | 1009.6 |
| 20260502024536 | 22 | 319 | 0.0 | 0.0 | 0.00 | 0.00 | 0.00 | 60 | 1009.4 |
| 20260502023032 | 23 | 284 | 0.0 | 0.0 | 0.00 | 0.00 | 0.00 | 60 | 1009.3 |
| 20260502021548 | 25 | 274 | 0.0 | 1.6 | 0.00 | 0.00 | 0.00 | 59 | 1009.3 |
| 20260502014549 | 27 | 293 | 0.0 | 1.6 | 0.00 | 0.00 | 0.00 | 52 | 1009.3 |
| 20260502013059 | 27 | 19 | 0.0 | 1.6 | 0.00 | 0.00 | 0.00 | 49 | 1009.4 |
| 20260502011546 | 26 | 213 | 0.0 | 0.0 | 0.00 | 0.00 | 0.00 | 51 | 1009.4 |
| 20260502004625 | 27 | 307 | 0.0 | 6.4 | 0.00 | 0.00 | 0.00 | 54 | 1009.7 |
| 20260502003102 | 27 | 229 | 0.0 | 6.4 | 0.00 | 0.00 | 0.00 | 52 | 1009.7 |
| 20260502001611 | 27 | 217 | 0.0 | 6.4 | 0.00 | 0.00 | 0.00 | 50 | 1009.7 |
| 20260502000002 | 27 | 191 | 0.0 | 12.9 | 0.00 | 0.00 | 0.00 | 49 | 1009.8 |
| 20260501234501 | 28 | 234 | 0.0 | 0.0 | 0.00 | 0.00 | 0.00 | 47 | 1009.9 |
| 20260501233004 | 27 | 197 | 0.0 | 1.6 | 0.00 | 0.00 | 0.00 | 47 | 1010.0 |
| 20260501231501 | 27 | 291 | 0.0 | 4.8 | 0.00 | 0.00 | 0.00 | 46 | 1010.1 |
| 20260501230117 | 28 | 222 | 0.0 | 6.4 | 0.00 | 0.00 | 0.00 | 45 | 1010.3 |
| 20260501224616 | 28 | 310 | 0.0 | 4.8 | 0.00 | 0.00 | 0.00 | 45 | 1010.6 |
| 20260501223118 | 28 | 284 | 0.0 | 1.6 | 0.00 | 0.00 | 0.00 | 45 | 1010.9 |
| 20260501221618 | 27 | 293 | 0.0 | 1.6 | 0.00 | 0.00 | 0.00 | 46 | 1011.1 |
| 20260501220139 | 27 | 219 | 0.0 | 4.8 | 0.00 | 0.00 | 0.00 | 46 | 1011.3 |
| 20260501214617 | 27 | 316 | 0.0 | 1.6 | 0.00 | 0.00 | 0.00 | 47 | 1011.4 |
| 20260501213117 | 27 | 286 | 0.0 | 1.6 | 0.00 | 0.00 | 0.00 | 48 | 1011.6 |
| 20260501211615 | 27 | 289 | 0.0 | 3.2 | 0.00 | 0.00 | 0.00 | 49 | 1011.6 |
| 20260501210123 | 27 | 285 | 0.0 | 8.0 | 0.00 | 0.00 | 0.00 | 48 | 1011.8 |
| 20260501204615 | 26 | 274 | 0.0 | 8.0 | 0.00 | 0.00 | 0.00 | 50 | 1012.0 |
| 20260501203115 | 26 | 339 | 0.0 | 9.7 | 0.00 | 0.00 | 0.00 | 53 | 1012.1 |
| 20260501201616 | 26 | 278 | 0.0 | 8.0 | 0.00 | 0.00 | 0.00 | 52 | 1012.3 |
| 20260501200118 | 25 | 334 | 0.0 | 11.3 | 0.00 | 0.00 | 0.00 | 54 | 1012.3 |
| 20260501194615 | 25 | 336 | 0.0 | 9.7 | 0.00 | 0.00 | 0.00 | 54 | 1012.5 |
| 20260501193115 | 24 | 231 | 0.0 | 6.4 | 0.00 | 0.00 | 0.00 | 55 | 1012.6 |
| 20260501191616 | 23 | 346 | 0.0 | 4.8 | 0.00 | 0.00 | 0.00 | 56 | 1012.9 |
| 20260501190014 | 23 | 264 | 0.0 | 6.4 | 0.00 | 0.00 | 0.00 | 60 | 1013.0 |
| 20260501184525 | 23 | 331 | 0.0 | 8.0 | 0.00 | 0.00 | 0.00 | 58 | 1013.2 |
| 20260501183032 | 22 | 271 | 0.0 | 6.4 | 0.00 | 0.00 | 0.00 | 61 | 1013.3 |
| 20260501181554 | 21 | 276 | 0.0 | 4.8 | 0.00 | 0.00 | 0.00 | 61 | 1013.4 |
| 20260501180041 | 21 | 176 | 0.0 | 6.4 | 0.00 | 0.00 | 0.00 | 61 | 1013.3 |
| 20260501174504 | 20 | 277 | 0.0 | 4.8 | 0.00 | 0.00 | 0.00 | 65 | 1013.4 |
| 20260501173007 | 20 | 225 | 0.0 | 4.8 | 0.00 | 0.00 | 0.00 | 66 | 1013.3 |
| 20260501171504 | 19 | 326 | 0.0 | 4.8 | 0.00 | 0.00 | 0.00 | 68 | 1013.3 |
| 20260501170004 | 18 | 314 | 0.0 | 6.4 | 0.00 | 0.00 | 0.00 | 68 | 1013.4 |
| 20260501164505 | 18 | 289 | 0.0 | 6.4 | 0.00 | 0.00 | 0.00 | 71 | 1013.5 |
| 20260501163004 | 17 | 196 | 0.0 | 4.8 | 0.00 | 0.00 | 0.00 | 73 | 1013.5 |
| 20260501161504 | 17 | 216 | 0.0 | 4.8 | 0.00 | 0.00 | 0.00 | 74 | 1013.5 |
| 20260501160108 | 16 | 170 | 0.0 | 0.0 | 0.00 | 0.00 | 0.00 | 77 | 1013.5 |
| 20260501154554 | 16 | 268 | 0.0 | 0.0 | 0.00 | 0.00 | 0.00 | 76 | 1013.6 |
| 20260501153048 | 16 | 220 | 0.0 | 4.8 | 0.00 | 0.00 | 0.00 | 79 | 1013.5 |
| 20260501151551 | 15 | 292 | 0.0 | 4.8 | 0.00 | 0.00 | 0.00 | 82 | 1013.4 |
| 20260501150058 | 14 | 262 | 0.0 | 0.0 | 0.00 | 0.00 | 0.00 | 83 | 1013.3 |
| 20260501144559 | 13 | 172 | 0.0 | 3.2 | 0.00 | 0.00 | 0.00 | 84 | 1013.2 |
| 20260501143115 | 13 | 163 | 0.0 | 0.0 | 0.00 | 0.00 | 0.00 | 85 | 1013.0 |
| 20260501141558 | 13 | 276 | 0.0 | 0.0 | 0.00 | 0.00 | 0.00 | 84 | 1012.8 |